LLBG Airport Information

Runway Information
Runway 03 Length 9094 ft width 148 ft
Elevation 129 ft Threshold 0 ft Heading 29
Runway 21 Length 9094 ft Width 148 ft
Elevation 134 ft Threshold 0 ft Heading 209
Runway 08 Length 13327 ft width 148 ft
Elevation 97 ft Threshold 0 ft Heading 80
Runway 26 Length 13327 ft Width 148 ft
Elevation 124 ft Threshold 1969 ft Heading 260
Runway 12 Length 10209 ft width 148 ft
Elevation 112 ft Threshold 0 ft Heading 121
Runway 30 Length 10209 ft Width 148 ft
Elevation 130 ft Threshold 246 ft Heading 301
Airport Frequencies
Type APP Name Ben Gurion Frequency 120.5 MHZ
Type ATIS Name ATIS Frequency 132.5 MHZ
Type CLD Name CLNC DEL Frequency 119.35 MHZ
Type GND Name GND WEST Frequency 118.05 MHZ
Type GND Name GND EAST Frequency 129.2 MHZ
Type MISC Name VOLMET Frequency 126.8 MHZ
Type TMA Name Ben Gurion Frequency 119.5 MHZ
Type TWR Name Ben Gurion Frequency 132.1 MHZ
Type TWR Name Ben Gurion Frequency 134.6 MHZ
Airport Navaids
Type VOR-DME Name Ben Gurion Frequency 113500 KHZ
Type NDB Name Tel Aviv Frequency 331 KHZ
Airport Weather Information & NOTAM
ADDS - METARS form results

(0809 UTC 22 May 2018)
 
METAR text: LLBG 220750Z VRB03KT CAVOK 36/08 Q1013 NOSIG
Conditions at: LLBG (BEN-GURION(CIV/M, IL) observed 0750 UTC 22 May 2018
Temperature: 36.0°C (97°F)
Dewpoint: 8.0°C (46°F) [RH = 18%]
Pressure (altimeter): 29.91 inches Hg (1013.0 mb)
Winds: variable direction winds at 3 MPH (3 knots; 1.6 m/s)
Visibility: 6 or more miles (10+ km)
Ceiling: ceiling and visibility are OK
Clouds: unknown
Weather: no significant weather observed at this time

METAR text: LLBG 220720Z VRB03KT CAVOK 34/09 Q1013 NOSIG
Conditions at: LLBG (BEN-GURION(CIV/M, IL) observed 0720 UTC 22 May 2018
Temperature: 34.0°C (93°F)
Dewpoint: 9.0°C (48°F) [RH = 22%]
Pressure (altimeter): 29.91 inches Hg (1013.0 mb)
Winds: variable direction winds at 3 MPH (3 knots; 1.6 m/s)
Visibility: 6 or more miles (10+ km)
Ceiling: ceiling and visibility are OK
Clouds: unknown
Weather: no significant weather observed at this time